Location: Newark
(0.5300°S, 127.4800°E)
Time: 04:17:21
(UTC+00:00)

Vanguard 3 - Pass Details

Date: 24 September 2019
Orbit: 508 x 3262 km, 33.3° (Epoch: 18 October)

Event Time Altitude Azimuth Distance (km) Brightness Sun altitude
Rises 06:56:18 0° 303° (WNW) 7,012 12.6 36.5°
Reaches altitude 10° 07:01:26 10° 303° (WNW) 5,752 12.4 35.2°
Maximum altitude 07:17:53 78° 218° (SW) 2,039 9.8 31.1°
Drops below altitude 10° 07:27:06 10° 132° (SE) 3,416 10.0 28.8°
Sets 07:29:23 0° 130° (SE) 4,112 10.4 28.2°
